Location: Dumpton Point
(51.3500°N, 1.4433°E)
Time: 23:29:29
(UTC+00:00)

USA 186 - Pass Details

Date: 09 April 2020
Orbit: 262 x 445 km, 96.9° (Epoch: 03 June)

Event Time Altitude Azimuth Distance (km) Brightness Sun altitude
Rises 18:08:44 0° 123° (ESE) 2,386 5.0 4.2°
Reaches altitude 10° 18:11:28 10° 98° (E) 1,490 3.9 3.7°
Drops below altitude 10° 18:14:55 10° 31° (NNE) 1,445 4.3 3.2°
Enters shadow 19:10:11 -65° 168° (SSE) 11,928 9.0 -5.1°
Exits shadow 19:37:06 -5° 176° (S) 3,065 5.8 -9.0°
Maximum altitude 19:43:55 46° 260° (W) 566 2.8 -10.0°
